Time,TemperatureF,DewpointF,PressureIn,WindDirection,WindDirectionDegrees,WindSpeedMPH,WindSpeedGustMPH,Humidity,HourlyPrecipIn,Conditions,Clouds,dailyrainin,SoftwareType,DateUTC
2013-02-25 00:05:00,30.5,22.2,30.12,SW,233,3.0,10.0,71,0.00,,,-99.99,Weather View 32 v70,2013-02-25 05:05:00,
2013-02-25 00:09:00,30.5,22.2,30.12,WSW,257,5.0,10.0,71,0.00,,,-99.99,Weather View 32 v70,2013-02-25 05:09:00,
2013-02-25 00:11:00,30.5,22.2,30.12,WSW,257,5.0,10.0,71,0.00,,,-99.99,Weather View 32 v70,2013-02-25 05:11:00,
2013-02-25 00:19:00,30.5,22.5,30.12,West,260,3.0,11.0,72,0.00,,,-99.99,Weather View 32 v70,2013-02-25 05:19:00,
2013-02-25 00:24:00,30.5,22.5,30.12,West,265,3.0,11.0,72,0.00,,,-99.99,Weather View 32 v70,2013-02-25 05:24:00,
2013-02-25 00:29:00,30.5,22.5,30.13,West,265,3.0,11.0,72,0.00,,,-99.99,Weather View 32 v70,2013-02-25 05:29:00,
2013-02-25 00:35:00,30.5,22.5,30.13,West,265,2.0,11.0,72,0.00,,,-99.99,Weather View 32 v70,2013-02-25 05:35:00,
2013-02-25 00:44:00,30.5,22.5,30.13,WSW,254,1.0,11.0,72,0.00,,,-99.99,Weather View 32 v70,2013-02-25 05:44:00,
2013-02-25 00:49:00,30.5,22.9,30.13,SW,221,3.0,11.0,73,0.00,,,-99.99,Weather View 32 v70,2013-02-25 05:49:00,
2013-02-25 00:59:00,30.5,22.5,30.13,WNW,284,4.0,13.0,72,0.00,,,-99.99,Weather View 32 v70,2013-02-25 05:59:00,
2013-02-25 01:04:00,30.4,22.5,30.13,WSW,248,4.0,13.0,72,0.00,,,-99.99,Weather View 32 v70,2013-02-25 06:04:00,
2013-02-25 01:09:00,30.4,22.8,30.14,West,262,4.0,13.0,73,0.00,,,-99.99,Weather View 32 v70,2013-02-25 06:09:00,
2013-02-25 01:14:00,30.4,22.5,30.13,WNW,285,3.0,13.0,72,0.00,,,-99.99,Weather View 32 v70,2013-02-25 06:14:00,
2013-02-25 01:24:00,30.4,22.5,30.14,SW,230,4.0,13.0,72,0.00,,,-99.99,Weather View 32 v70,2013-02-25 06:24:00,
2013-02-25 01:29:00,30.5,22.5,30.14,WSW,254,4.0,13.0,72,0.00,,,-99.99,Weather View 32 v70,2013-02-25 06:29:00,
2013-02-25 01:34:00,30.4,22.5,30.14,WSW,242,1.0,13.0,72,0.00,,,-99.99,Weather View 32 v70,2013-02-25 06:34:00,
2013-02-25 01:39:00,30.4,22.5,30.14,West,268,2.0,13.0,72,0.00,,,-99.99,Weather View 32 v70,2013-02-25 06:39:00,
2013-02-25 01:44:00,30.4,22.5,30.14,West,263,3.0,13.0,72,0.00,,,-99.99,Weather View 32 v70,2013-02-25 06:44:00,
2013-02-25 01:54:00,30.3,22.4,30.14,NW,313,2.0,9.0,72,0.00,,,-99.99,Weather View 32 v70,2013-02-25 06:54:00,
2013-02-25 01:59:00,30.3,22.4,30.14,WSW,252,3.0,9.0,72,0.00,,,-99.99,Weather View 32 v70,2013-02-25 06:59:00,
2013-02-25 02:09:00,30.3,22.4,30.15,WSW,253,3.0,9.0,72,0.00,,,-99.99,Weather View 32 v70,2013-02-25 07:09:00,
2013-02-25 02:14:00,30.4,22.1,30.14,West,261,1.0,9.0,71,0.00,,,-99.99,Weather View 32 v70,2013-02-25 07:14:00,
2013-02-25 02:19:00,30.4,22.5,30.14,West,261,0.0,8.0,72,0.00,,,-99.99,Weather View 32 v70,2013-02-25 07:19:00,
2013-02-25 02:24:00,30.4,22.5,30.14,SW,230,0.0,7.0,72,0.00,,,-99.99,Weather View 32 v70,2013-02-25 07:24:00,
2013-02-25 02:34:00,30.5,22.5,30.14,WSW,242,1.0,7.0,72,0.00,,,-99.99,Weather View 32 v70,2013-02-25 07:34:00,
2013-02-25 02:39:00,30.5,22.5,30.14,SSW,212,3.0,7.0,72,0.00,,,-99.99,Weather View 32 v70,2013-02-25 07:39:00,
2013-02-25 02:44:00,30.5,22.5,30.14,SW,216,2.0,7.0,72,0.00,,,-99.99,Weather View 32 v70,2013-02-25 07:44:00,
2013-02-25 02:54:00,30.5,22.5,30.14,SW,223,4.0,7.0,72,0.00,,,-99.99,Weather View 32 v70,2013-02-25 07:54:00,
2013-02-25 02:59:00,30.5,22.5,30.15,SW,221,1.0,7.0,72,0.00,,,-99.99,Weather View 32 v70,2013-02-25 07:59:00,
2013-02-25 03:04:00,30.5,22.5,30.15,SW,221,2.0,7.0,72,0.00,,,-99.99,Weather View 32 v70,2013-02-25 08:04:00,
2013-02-25 03:09:00,30.5,22.5,30.15,SW,221,4.0,7.0,72,0.00,,,-99.99,Weather View 32 v70,2013-02-25 08:09:00,
2013-02-25 03:19:00,30.5,22.5,30.15,SW,221,4.0,7.0,72,0.00,,,-99.99,Weather View 32 v70,2013-02-25 08:19:00,
2013-02-25 03:24:00,30.5,22.5,30.15,SW,219,3.0,7.0,72,0.00,,,-99.99,Weather View 32 v70,2013-02-25 08:24:00,
2013-02-25 03:29:00,30.5,22.5,30.15,SW,215,1.0,7.0,72,0.00,,,-99.99,Weather View 32 v70,2013-02-25 08:29:00,
2013-02-25 03:34:00,30.5,22.5,30.15,WSW,239,1.0,7.0,72,0.00,,,-99.99,Weather View 32 v70,2013-02-25 08:34:00,
2013-02-25 03:44:00,30.5,22.5,30.15,SW,222,4.0,7.0,72,0.00,,,-99.99,Weather View 32 v70,2013-02-25 08:44:00,
2013-02-25 03:49:00,30.5,22.5,30.15,SW,218,2.0,7.0,72,0.00,,,-99.99,Weather View 32 v70,2013-02-25 08:49:00,
2013-02-25 03:54:00,30.5,22.9,30.16,SW,236,3.0,7.0,73,0.00,,,-99.99,Weather View 32 v70,2013-02-25 08:54:00,
2013-02-25 04:04:00,30.5,22.9,30.16,SW,233,4.0,6.0,73,0.00,,,-99.99,Weather View 32 v70,2013-02-25 09:04:00,
2013-02-25 04:09:00,30.5,22.5,30.16,SW,221,2.0,6.0,72,0.00,,,-99.99,Weather View 32 v70,2013-02-25 09:09:00,
2013-02-25 04:14:00,30.5,22.9,30.16,SW,233,3.0,6.0,73,0.00,,,-99.99,Weather View 32 v70,2013-02-25 09:14:00,
2013-02-25 04:19:00,30.5,22.9,30.16,SW,227,3.0,6.0,73,0.00,,,-99.99,Weather View 32 v70,2013-02-25 09:19:00,
2013-02-25 04:29:00,30.5,22.9,30.16,WSW,239,3.0,6.0,73,0.00,,,-99.99,Weather View 32 v70,2013-02-25 09:29:00,
2013-02-25 04:34:00,30.4,22.8,30.16,WSW,246,3.0,6.0,73,0.00,,,-99.99,Weather View 32 v70,2013-02-25 09:34:00,
2013-02-25 04:44:00,30.4,22.8,30.17,WSW,238,2.0,6.0,73,0.00,,,-99.99,Weather View 32 v70,2013-02-25 09:44:00,
2013-02-25 04:54:00,30.5,22.5,30.17,SW,230,3.0,6.0,72,0.00,,,-99.99,Weather View 32 v70,2013-02-25 09:54:00,
2013-02-25 04:59:00,30.5,22.5,30.17,SW,224,3.0,6.0,72,0.00,,,-99.99,Weather View 32 v70,2013-02-25 09:59:00,
2013-02-25 05:04:00,30.5,22.9,30.17,SW,229,3.0,6.0,73,0.00,,,-99.99,Weather View 32 v70,2013-02-25 10:04:00,
2013-02-25 05:09:00,30.5,22.9,30.17,SW,229,2.0,6.0,73,0.00,,,-99.99,Weather View 32 v70,2013-02-25 10:09:00,
2013-02-25 05:19:00,30.5,22.9,30.17,WSW,254,1.0,6.0,73,0.00,,,-99.99,Weather View 32 v70,2013-02-25 10:19:00,
2013-02-25 05:24:00,30.5,22.9,30.17,SW,220,2.0,6.0,73,0.00,,,-99.99,Weather View 32 v70,2013-02-25 10:24:00,
2013-02-25 05:29:00,30.5,22.9,30.17,SW,220,1.0,6.0,73,0.00,,,-99.99,Weather View 32 v70,2013-02-25 10:29:00,
2013-02-25 05:39:00,30.5,22.5,30.17,SW,220,0.0,6.0,72,0.00,,,-99.99,Weather View 32 v70,2013-02-25 10:39:00,
2013-02-25 05:44:00,30.5,22.9,30.18,SW,220,0.0,6.0,73,0.00,,,-99.99,Weather View 32 v70,2013-02-25 10:44:00,
2013-02-25 05:49:00,30.5,22.9,30.18,SW,220,1.0,6.0,73,0.00,,,-99.99,Weather View 32 v70,2013-02-25 10:49:00,
2013-02-25 05:54:00,30.5,22.9,30.18,SW,220,2.0,6.0,73,0.00,,,-99.99,Weather View 32 v70,2013-02-25 10:54:00,
2013-02-25 05:59:00,30.5,22.9,30.18,SW,220,1.0,6.0,73,0.00,,,-99.99,Weather View 32 v70,2013-02-25 10:59:00,
2013-02-25 06:09:00,30.5,22.9,30.19,SW,221,3.0,6.0,73,0.00,,,-99.99,Weather View 32 v70,2013-02-25 11:09:00,
2013-02-25 06:15:00,30.5,22.9,30.18,SW,226,3.0,5.0,73,0.00,,,-99.99,Weather View 32 v70,2013-02-25 11:15:00,
2013-02-25 06:24:00,30.4,22.8,30.19,SW,222,3.0,7.0,73,0.00,,,-99.99,Weather View 32 v70,2013-02-25 11:24:00,
2013-02-25 06:29:00,30.4,22.8,30.18,SW,236,3.0,7.0,73,0.00,,,-99.99,Weather View 32 v70,2013-02-25 11:29:00,
2013-02-25 06:34:00,30.3,22.7,30.19,SW,225,3.0,7.0,73,0.00,,,-99.99,Weather View 32 v70,2013-02-25 11:34:00,
2013-02-25 06:39:00,30.3,23.0,30.19,WSW,237,3.0,7.0,74,0.00,,,-99.99,Weather View 32 v70,2013-02-25 11:39:00,
2013-02-25 06:49:00,30.2,22.9,30.19,SW,224,4.0,7.0,74,0.00,,,-99.99,Weather View 32 v70,2013-02-25 11:49:00,
2013-02-25 06:54:00,30.2,22.9,30.19,SW,224,2.0,7.0,74,0.00,,,-99.99,Weather View 32 v70,2013-02-25 11:54:00,
2013-02-25 06:59:00,30.2,22.9,30.19,SW,224,2.0,7.0,74,0.00,,,-99.99,Weather View 32 v70,2013-02-25 11:59:00,
2013-02-25 07:09:00,30.3,23.0,30.19,SW,223,1.0,7.0,74,0.00,,,-99.99,Weather View 32 v70,2013-02-25 12:09:00,
2013-02-25 07:14:00,30.3,23.0,30.19,SW,223,3.0,7.0,74,0.00,,,-99.99,Weather View 32 v70,2013-02-25 12:14:00,
2013-02-25 07:19:00,30.3,23.0,30.20,SW,221,2.0,7.0,74,0.00,,,-99.99,Weather View 32 v70,2013-02-25 12:19:00,
2013-02-25 07:29:00,30.3,23.3,30.20,SW,228,1.0,6.0,75,0.00,,,-99.99,Weather View 32 v70,2013-02-25 12:29:00,
2013-02-25 07:34:00,30.4,23.4,30.20,SW,228,1.0,6.0,75,0.00,,,-99.99,Weather View 32 v70,2013-02-25 12:34:00,
2013-02-25 07:39:00,30.5,23.5,30.20,SW,228,2.0,6.0,75,0.00,,,-99.99,Weather View 32 v70,2013-02-25 12:39:00,
2013-02-25 07:54:00,30.7,23.7,30.20,WSW,239,3.0,6.0,75,0.00,,,-99.99,Weather View 32 v70,2013-02-25 12:54:00,
2013-02-25 07:59:00,30.7,23.7,30.21,SW,231,1.0,6.0,75,0.00,,,-99.99,Weather View 32 v70,2013-02-25 12:59:00,
2013-02-25 08:09:00,30.8,23.8,30.22,WSW,244,4.0,7.0,75,0.00,,,-99.99,Weather View 32 v70,2013-02-25 13:09:00,
2013-02-25 08:14:00,30.9,23.9,30.22,SW,226,4.0,7.0,75,0.00,,,-99.99,Weather View 32 v70,2013-02-25 13:14:00,
2013-02-25 08:24:00,31.0,23.7,30.22,WSW,246,5.0,8.0,74,0.00,,,-99.99,Weather View 32 v70,2013-02-25 13:24:00,
2013-02-25 08:34:00,31.2,23.9,30.22,SW,232,4.0,9.0,74,0.00,,,-99.99,Weather View 32 v70,2013-02-25 13:34:00,
2013-02-25 08:39:00,31.2,23.9,30.22,SW,215,3.0,9.0,74,0.00,,,-99.99,Weather View 32 v70,2013-02-25 13:39:00,
2013-02-25 08:44:00,31.4,24.4,30.22,SW,229,5.0,9.0,75,0.00,,,-99.99,Weather View 32 v70,2013-02-25 13:44:00,
2013-02-25 08:49:00,31.5,24.2,30.23,SW,230,4.0,9.0,74,0.00,,,-99.99,Weather View 32 v70,2013-02-25 13:49:00,
2013-02-25 08:59:00,31.7,24.4,30.23,West,266,1.0,9.0,74,0.00,,,-99.99,Weather View 32 v70,2013-02-25 13:59:00,
2013-02-25 09:04:00,31.9,24.6,30.23,SW,220,0.0,9.0,74,0.00,,,-99.99,Weather View 32 v70,2013-02-25 14:04:00,
2013-02-25 09:09:00,32.0,24.3,30.23,SW,227,3.0,9.0,73,0.00,,,-99.99,Weather View 32 v70,2013-02-25 14:09:00,
2013-02-25 09:16:00,32.0,24.3,30.23,West,268,4.0,9.0,73,0.00,,,-99.99,Weather View 32 v70,2013-02-25 14:16:00,
2013-02-25 09:24:00,32.2,24.5,30.23,West,262,4.0,9.0,73,0.00,,,-99.99,Weather View 32 v70,2013-02-25 14:24:00,
2013-02-25 09:29:00,32.3,24.6,30.23,West,269,3.0,8.0,73,0.00,,,-99.99,Weather View 32 v70,2013-02-25 14:29:00,
2013-02-25 09:34:00,32.3,24.3,30.23,SW,218,7.0,8.0,72,0.00,,,-99.99,Weather View 32 v70,2013-02-25 14:34:00,
2013-02-25 09:44:00,32.5,24.8,30.23,WSW,256,3.0,11.0,73,0.00,,,-99.99,Weather View 32 v70,2013-02-25 14:44:00,
2013-02-25 09:49:00,32.7,24.7,30.24,SW,235,2.0,11.0,72,0.00,,,-99.99,Weather View 32 v70,2013-02-25 14:49:00,
2013-02-25 09:54:00,32.7,24.7,30.24,West,263,3.0,11.0,72,0.00,,,-99.99,Weather View 32 v70,2013-02-25 14:54:00,
2013-02-25 10:04:00,32.7,24.7,30.24,WSW,237,4.0,11.0,72,0.00,,,-99.99,Weather View 32 v70,2013-02-25 15:04:00,
2013-02-25 10:09:00,32.9,24.9,30.24,WNW,282,2.0,11.0,72,0.00,,,-99.99,Weather View 32 v70,2013-02-25 15:09:00,
2013-02-25 10:14:00,33.0,25.0,30.23,SW,235,3.0,11.0,72,0.00,,,-99.99,Weather View 32 v70,2013-02-25 15:14:00,
2013-02-25 10:19:00,33.2,25.1,30.24,WSW,256,4.0,11.0,72,0.00,,,-99.99,Weather View 32 v70,2013-02-25 15:19:00,
2013-02-25 10:29:00,33.3,24.9,30.24,West,270,4.0,11.0,71,0.00,,,-99.99,Weather View 32 v70,2013-02-25 15:29:00,
2013-02-25 10:34:00,33.6,25.2,30.24,SW,230,4.0,11.0,71,0.00,,,-99.99,Weather View 32 v70,2013-02-25 15:34:00,
2013-02-25 10:39:00,33.7,25.3,30.24,West,260,2.0,11.0,71,0.00,,,-99.99,Weather View 32 v70,2013-02-25 15:39:00,
2013-02-25 10:49:00,34.0,25.6,30.24,SW,223,5.0,10.0,71,0.00,,,-99.99,Weather View 32 v70,2013-02-25 15:49:00,
2013-02-25 10:54:00,34.1,25.7,30.24,SW,221,5.0,10.0,71,0.00,,,-99.99,Weather View 32 v70,2013-02-25 15:54:00,
2013-02-25 10:59:00,34.0,25.6,30.24,SW,226,2.0,10.0,71,0.00,,,-99.99,Weather View 32 v70,2013-02-25 15:59:00,
2013-02-25 11:09:00,34.1,25.7,30.24,WSW,249,7.0,10.0,71,0.00,,,-99.99,Weather View 32 v70,2013-02-25 16:09:00,
2013-02-25 11:18:00,34.2,25.8,30.24,SW,228,7.0,10.0,71,0.00,,,-99.99,Weather View 32 v70,2013-02-25 16:18:00,
2013-02-25 11:24:00,34.2,25.8,30.25,SSW,210,4.0,11.0,71,0.00,,,-99.99,Weather View 32 v70,2013-02-25 16:24:00,
2013-02-25 11:29:00,34.3,26.2,30.25,SW,229,10.0,11.0,72,0.00,,,-99.99,Weather View 32 v70,2013-02-25 16:29:00,
2013-02-25 11:34:00,34.4,26.0,30.25,SW,220,5.0,11.0,71,0.00,,,-99.99,Weather View 32 v70,2013-02-25 16:34:00,
2013-02-25 11:39:00,34.3,25.9,30.25,WSW,244,11.0,11.0,71,0.00,,,-99.99,Weather View 32 v70,2013-02-25 16:39:00,
2013-02-25 11:44:00,34.3,25.9,30.25,SSW,212,5.0,11.0,71,0.00,,,-99.99,Weather View 32 v70,2013-02-25 16:44:00,
2013-02-25 11:54:00,34.4,26.0,30.26,WSW,249,4.0,13.0,71,0.00,,,-99.99,Weather View 32 v70,2013-02-25 16:54:00,
2013-02-25 11:59:00,34.4,26.3,30.26,SW,231,6.0,13.0,72,0.00,,,-99.99,Weather View 32 v70,2013-02-25 16:59:00,
2013-02-25 12:04:00,34.4,26.0,30.26,SW,234,4.0,13.0,71,0.00,,,-99.99,Weather View 32 v70,2013-02-25 17:04:00,
2013-02-25 12:09:00,34.4,26.3,30.26,SW,234,4.0,13.0,72,0.00,,,-99.99,Weather View 32 v70,2013-02-25 17:09:00,
2013-02-25 12:14:00,34.4,26.0,30.26,SW,224,4.0,13.0,71,0.00,,,-99.99,Weather View 32 v70,2013-02-25 17:14:00,
2013-02-25 12:24:00,34.6,26.5,30.26,SW,216,4.0,13.0,72,0.00,,,-99.99,Weather View 32 v70,2013-02-25 17:24:00,
2013-02-25 12:29:00,34.8,26.4,30.25,SW,232,8.0,13.0,71,0.00,,,-99.99,Weather View 32 v70,2013-02-25 17:29:00,
2013-02-25 12:39:00,35.1,26.6,30.25,WNW,290,3.0,13.0,71,0.00,,,-99.99,Weather View 32 v70,2013-02-25 17:39:00,
2013-02-25 12:44:00,35.1,26.3,30.25,SW,230,3.0,13.0,70,0.00,,,-99.99,Weather View 32 v70,2013-02-25 17:44:00,
2013-02-25 12:49:00,35.3,26.1,30.25,West,265,8.0,13.0,69,0.00,,,-99.99,Weather View 32 v70,2013-02-25 17:49:00,
2013-02-25 12:59:00,35.4,26.2,30.25,SW,226,5.0,11.0,69,0.00,,,-99.99,Weather View 32 v70,2013-02-25 17:59:00,
2013-02-25 13:04:00,35.6,26.4,30.25,West,273,3.0,11.0,69,0.00,,,-99.99,Weather View 32 v70,2013-02-25 18:04:00,
2013-02-25 13:09:00,35.7,26.2,30.25,West,277,4.0,10.0,68,0.00,,,-99.99,Weather View 32 v70,2013-02-25 18:09:00,
2013-02-25 13:19:00,35.6,26.1,30.25,WSW,254,4.0,9.0,68,0.00,,,-99.99,Weather View 32 v70,2013-02-25 18:19:00,
2013-02-25 13:24:00,35.6,25.7,30.25,SW,225,6.0,9.0,67,0.00,,,-99.99,Weather View 32 v70,2013-02-25 18:24:00,
2013-02-25 13:29:00,35.9,25.6,30.26,SW,224,5.0,9.0,66,0.00,,,-99.99,Weather View 32 v70,2013-02-25 18:29:00,
2013-02-25 13:34:00,36.1,25.8,30.26,SW,214,4.0,9.0,66,0.00,,,-99.99,Weather View 32 v70,2013-02-25 18:34:00,
2013-02-25 13:39:00,36.2,25.6,30.25,WSW,248,5.0,9.0,65,0.00,,,-99.99,Weather View 32 v70,2013-02-25 18:39:00,
2013-02-25 13:49:00,36.3,25.7,30.25,SW,215,5.0,9.0,65,0.00,,,-99.99,Weather View 32 v70,2013-02-25 18:49:00,
2013-02-25 13:54:00,36.5,25.5,30.25,SW,228,5.0,9.0,64,0.00,,,-99.99,Weather View 32 v70,2013-02-25 18:54:00,
2013-02-25 13:59:00,36.5,25.5,30.25,NW,307,1.0,9.0,64,0.00,,,-99.99,Weather View 32 v70,2013-02-25 18:59:00,
2013-02-25 14:09:00,36.7,25.7,30.25,SW,222,4.0,9.0,64,0.00,,,-99.99,Weather View 32 v70,2013-02-25 19:09:00,
2013-02-25 14:14:00,36.6,25.6,30.25,SW,223,6.0,9.0,64,0.00,,,-99.99,Weather View 32 v70,2013-02-25 19:14:00,
2013-02-25 14:19:00,36.7,25.7,30.25,WSW,242,1.0,9.0,64,0.00,,,-99.99,Weather View 32 v70,2013-02-25 19:19:00,
2013-02-25 14:29:00,36.6,25.6,30.24,WNW,287,2.0,9.0,64,0.00,,,-99.99,Weather View 32 v70,2013-02-25 19:29:00,
2013-02-25 14:34:00,36.5,25.5,30.24,WNW,282,3.0,8.0,64,0.00,,,-99.99,Weather View 32 v70,2013-02-25 19:34:00,
2013-02-25 14:39:00,36.4,25.4,30.24,WSW,258,3.0,8.0,64,0.00,,,-99.99,Weather View 32 v70,2013-02-25 19:39:00,
2013-02-25 14:44:00,36.4,25.4,30.24,West,265,5.0,8.0,64,0.00,,,-99.99,Weather View 32 v70,2013-02-25 19:44:00,
2013-02-25 14:49:00,36.5,25.1,30.24,West,263,0.0,8.0,63,0.00,,,-99.99,Weather View 32 v70,2013-02-25 19:49:00,
2013-02-25 14:59:00,36.1,24.7,30.24,West,265,1.0,8.0,63,0.00,,,-99.99,Weather View 32 v70,2013-02-25 19:59:00,
2013-02-25 15:04:00,36.3,24.9,30.24,WSW,253,2.0,8.0,63,0.00,,,-99.99,Weather View 32 v70,2013-02-25 20:04:00,
2013-02-25 15:09:00,36.3,25.3,30.24,NW,307,2.0,8.0,64,0.00,,,-99.99,Weather View 32 v70,2013-02-25 20:09:00,
2013-02-25 15:19:00,36.8,25.8,30.24,SW,218,1.0,7.0,64,0.00,,,-99.99,Weather View 32 v70,2013-02-25 20:19:00,
2013-02-25 15:24:00,36.7,25.3,30.23,SW,236,2.0,7.0,63,0.00,,,-99.99,Weather View 32 v70,2013-02-25 20:24:00,
2013-02-25 15:29:00,36.7,25.3,30.23,WSW,255,1.0,7.0,63,0.00,,,-99.99,Weather View 32 v70,2013-02-25 20:29:00,
2013-02-25 15:39:00,36.8,25.4,30.23,WSW,253,0.0,7.0,63,0.00,,,-99.99,Weather View 32 v70,2013-02-25 20:39:00,
2013-02-25 15:44:00,36.8,25.4,30.23,WSW,253,0.0,7.0,63,0.00,,,-99.99,Weather View 32 v70,2013-02-25 20:44:00,
2013-02-25 15:49:00,36.8,25.4,30.23,WNW,293,2.0,7.0,63,0.00,,,-99.99,Weather View 32 v70,2013-02-25 20:49:00,
2013-02-25 15:54:00,36.8,25.4,30.22,WSW,248,4.0,7.0,63,0.00,,,-99.99,Weather View 32 v70,2013-02-25 20:54:00,
2013-02-25 16:04:00,36.7,24.9,30.22,West,269,0.0,7.0,62,0.00,,,-99.99,Weather View 32 v70,2013-02-25 21:04:00,
2013-02-25 16:09:00,36.4,24.6,30.22,West,269,2.0,7.0,62,0.00,,,-99.99,Weather View 32 v70,2013-02-25 21:09:00,
2013-02-25 16:14:00,36.4,25.0,30.22,SSE,149,2.0,7.0,63,0.00,,,-99.99,Weather View 32 v70,2013-02-25 21:14:00,
2013-02-25 16:19:00,36.6,25.2,30.23,SW,217,0.0,5.0,63,0.00,,,-99.99,Weather View 32 v70,2013-02-25 21:19:00,
2013-02-25 16:29:00,36.7,25.3,30.23,West,263,0.0,5.0,63,0.00,,,-99.99,Weather View 32 v70,2013-02-25 21:29:00,
2013-02-25 16:34:00,36.8,25.4,30.23,West,260,1.0,5.0,63,0.00,,,-99.99,Weather View 32 v70,2013-02-25 21:34:00,
2013-02-25 16:39:00,36.7,25.3,30.23,West,260,1.0,5.0,63,0.00,,,-99.99,Weather View 32 v70,2013-02-25 21:39:00,
2013-02-25 16:49:00,36.6,25.2,30.23,SW,228,2.0,5.0,63,0.00,,,-99.99,Weather View 32 v70,2013-02-25 21:49:00,
2013-02-25 16:59:00,36.5,25.1,30.23,SW,228,2.0,5.0,63,0.00,,,-99.99,Weather View 32 v70,2013-02-25 21:59:00,
2013-02-25 17:09:00,36.3,24.5,30.22,SW,228,0.0,5.0,62,0.00,,,-99.99,Weather View 32 v70,2013-02-25 22:09:00,
2013-02-25 17:14:00,36.2,24.8,30.22,SW,228,2.0,5.0,63,0.00,,,-99.99,Weather View 32 v70,2013-02-25 22:14:00,
2013-02-25 17:19:00,36.0,24.6,30.22,SW,228,0.0,5.0,63,0.00,,,-99.99,Weather View 32 v70,2013-02-25 22:19:00,
2013-02-25 17:29:00,35.8,24.4,30.22,SW,228,1.0,5.0,63,0.00,,,-99.99,Weather View 32 v70,2013-02-25 22:29:00,
2013-02-25 17:34:00,35.6,24.2,30.23,SW,228,0.0,5.0,63,0.00,,,-99.99,Weather View 32 v70,2013-02-25 22:34:00,
2013-02-25 17:39:00,35.4,24.0,30.23,SW,228,0.0,5.0,63,0.00,,,-99.99,Weather View 32 v70,2013-02-25 22:39:00,
2013-02-25 17:44:00,35.2,24.2,30.23,SW,228,0.0,5.0,64,0.00,,,-99.99,Weather View 32 v70,2013-02-25 22:44:00,
2013-02-25 17:54:00,34.9,24.0,30.23,SW,228,0.0,3.0,64,0.00,,,-99.99,Weather View 32 v70,2013-02-25 22:54:00,
2013-02-25 17:59:00,34.7,24.1,30.23,SW,228,0.0,3.0,65,0.00,,,-99.99,Weather View 32 v70,2013-02-25 22:59:00,
2013-02-25 18:09:00,34.2,23.7,30.23,SW,228,0.0,2.0,65,0.00,,,-99.99,Weather View 32 v70,2013-02-25 23:09:00,
2013-02-25 18:14:00,34.0,23.5,30.23,SW,228,0.0,2.0,65,0.00,,,-99.99,Weather View 32 v70,2013-02-25 23:14:00,
2013-02-25 18:19:00,33.8,23.3,30.23,SW,228,0.0,2.0,65,0.00,,,-99.99,Weather View 32 v70,2013-02-25 23:19:00,
2013-02-25 18:24:00,33.5,23.4,30.23,SW,228,0.0,2.0,66,0.00,,,-99.99,Weather View 32 v70,2013-02-25 23:24:00,
2013-02-25 18:29:00,33.1,23.0,30.23,SW,228,0.0,1.0,66,0.00,,,-99.99,Weather View 32 v70,2013-02-25 23:29:00,
2013-02-25 18:39:00,32.9,23.1,30.23,SW,228,0.0,0.0,67,0.00,,,-99.99,Weather View 32 v70,2013-02-25 23:39:00,
2013-02-25 18:44:00,32.6,22.9,30.23,SW,228,0.0,0.0,67,0.00,,,-99.99,Weather View 32 v70,2013-02-25 23:44:00,
2013-02-25 18:49:00,32.4,22.7,30.22,SW,228,0.0,0.0,67,0.00,,,-99.99,Weather View 32 v70,2013-02-25 23:49:00,
2013-02-25 18:59:00,32.1,22.7,30.23,SW,228,0.0,0.0,68,0.00,,,-99.99,Weather View 32 v70,2013-02-25 23:59:00,
2013-02-25 19:04:00,32.1,22.7,30.23,SW,228,0.0,0.0,68,0.00,,,-99.99,Weather View 32 v70,2013-02-26 00:04:00,
2013-02-25 19:09:00,31.9,22.5,30.23,SW,228,0.0,0.0,68,0.00,,,-99.99,Weather View 32 v70,2013-02-26 00:09:00,
2013-02-25 19:14:00,31.7,22.3,30.24,SW,228,0.0,0.0,68,0.00,,,-99.99,Weather View 32 v70,2013-02-26 00:14:00,
2013-02-25 19:22:00,31.6,22.2,30.23,SW,228,0.0,0.0,68,0.00,,,-99.99,Weather View 32 v70,2013-02-26 00:22:00,
2013-02-25 19:29:00,31.4,22.4,30.23,SW,228,1.0,1.0,69,0.00,,,-99.99,Weather View 32 v70,2013-02-26 00:29:00,
2013-02-25 19:34:00,31.1,21.8,30.24,SW,228,0.0,1.0,68,0.00,,,-99.99,Weather View 32 v70,2013-02-26 00:34:00,
2013-02-25 19:39:00,30.9,21.9,30.23,SW,228,0.0,1.0,69,0.00,,,-99.99,Weather View 32 v70,2013-02-26 00:39:00,
2013-02-25 19:49:00,30.9,21.9,30.23,SW,228,0.0,1.0,69,0.00,,,-99.99,Weather View 32 v70,2013-02-26 00:49:00,
2013-02-25 19:54:00,30.7,21.7,30.23,SW,228,0.0,1.0,69,0.00,,,-99.99,Weather View 32 v70,2013-02-26 00:54:00,
2013-02-25 19:59:00,30.7,22.1,30.23,SW,228,0.0,1.0,70,0.00,,,-99.99,Weather View 32 v70,2013-02-26 00:59:00,
2013-02-25 20:04:00,30.6,22.0,30.23,SW,228,0.0,1.0,70,0.00,,,-99.99,Weather View 32 v70,2013-02-26 01:04:00,
2013-02-25 20:14:00,30.4,21.8,30.23,SW,228,0.0,1.0,70,0.00,,,-99.99,Weather View 32 v70,2013-02-26 01:14:00,
2013-02-25 20:19:00,30.1,21.5,30.23,SW,228,0.0,1.0,70,0.00,,,-99.99,Weather View 32 v70,2013-02-26 01:19:00,
2013-02-25 20:24:00,30.0,21.4,30.22,SW,228,0.0,1.0,70,0.00,,,-99.99,Weather View 32 v70,2013-02-26 01:24:00,
2013-02-25 20:29:00,29.9,21.3,30.23,SW,228,0.0,1.0,70,0.00,,,-99.99,Weather View 32 v70,2013-02-26 01:29:00,
2013-02-25 20:39:00,29.8,21.2,30.23,SW,228,0.0,1.0,70,0.00,,,-99.99,Weather View 32 v70,2013-02-26 01:39:00,
2013-02-25 20:44:00,29.8,21.2,30.23,SW,228,0.0,1.0,70,0.00,,,-99.99,Weather View 32 v70,2013-02-26 01:44:00,
2013-02-25 20:49:00,29.7,21.4,30.23,SW,228,0.0,1.0,71,0.00,,,-99.99,Weather View 32 v70,2013-02-26 01:49:00,
2013-02-25 20:59:00,29.4,21.2,30.24,SW,228,0.0,1.0,71,0.00,,,-99.99,Weather View 32 v70,2013-02-26 01:59:00,
2013-02-25 21:04:00,29.4,21.2,30.23,SW,228,0.0,1.0,71,0.00,,,-99.99,Weather View 32 v70,2013-02-26 02:04:00,
2013-02-25 21:09:00,29.3,21.1,30.24,SW,228,0.0,1.0,71,0.00,,,-99.99,Weather View 32 v70,2013-02-26 02:09:00,
2013-02-25 21:19:00,29.0,20.8,30.23,SW,228,0.0,1.0,71,0.00,,,-99.99,Weather View 32 v70,2013-02-26 02:19:00,
2013-02-25 21:24:00,29.0,20.8,30.24,SW,228,0.0,1.0,71,0.00,,,-99.99,Weather View 32 v70,2013-02-26 02:24:00,
2013-02-25 21:29:00,28.9,20.7,30.24,SW,228,0.0,0.0,71,0.00,,,-99.99,Weather View 32 v70,2013-02-26 02:29:00,
2013-02-25 21:39:00,28.7,20.5,30.23,SW,228,0.0,0.0,71,0.00,,,-99.99,Weather View 32 v70,2013-02-26 02:39:00,
2013-02-25 21:49:00,28.4,20.5,30.24,SW,228,0.0,1.0,72,0.00,,,-99.99,Weather View 32 v70,2013-02-26 02:49:00,
2013-02-25 21:54:00,28.6,20.7,30.24,SW,228,0.0,1.0,72,0.00,,,-99.99,Weather View 32 v70,2013-02-26 02:54:00,
2013-02-25 21:59:00,28.6,20.7,30.24,SW,228,0.0,1.0,72,0.00,,,-99.99,Weather View 32 v70,2013-02-26 02:59:00,
2013-02-25 22:09:00,28.4,20.5,30.24,SW,228,0.0,1.0,72,0.00,,,-99.99,Weather View 32 v70,2013-02-26 03:09:00,
2013-02-25 22:14:00,28.2,20.3,30.24,SW,228,0.0,1.0,72,0.00,,,-99.99,Weather View 32 v70,2013-02-26 03:14:00,
2013-02-25 22:19:00,28.0,20.1,30.24,SW,228,0.0,1.0,72,0.00,,,-99.99,Weather View 32 v70,2013-02-26 03:19:00,
2013-02-25 22:29:00,27.9,20.0,30.24,SW,228,0.0,1.0,72,0.00,,,-99.99,Weather View 32 v70,2013-02-26 03:29:00,
2013-02-25 22:34:00,27.8,20.3,30.23,SW,228,0.0,1.0,73,0.00,,,-99.99,Weather View 32 v70,2013-02-26 03:34:00,
2013-02-25 22:39:00,27.8,20.3,30.23,SW,228,0.0,1.0,73,0.00,,,-99.99,Weather View 32 v70,2013-02-26 03:39:00,
2013-02-25 22:44:00,27.7,20.2,30.23,SW,228,1.0,1.0,73,0.00,,,-99.99,Weather View 32 v70,2013-02-26 03:44:00,
2013-02-25 22:54:00,27.2,19.7,30.23,SW,228,0.0,1.0,73,0.00,,,-99.99,Weather View 32 v70,2013-02-26 03:54:00,
2013-02-25 22:59:00,27.2,20.0,30.22,SW,228,0.0,1.0,74,0.00,,,-99.99,Weather View 32 v70,2013-02-26 03:59:00,
2013-02-25 23:04:00,27.2,20.0,30.22,SW,228,1.0,1.0,74,0.00,,,-99.99,Weather View 32 v70,2013-02-26 04:04:00,
2013-02-25 23:09:00,27.2,20.0,30.21,SW,228,1.0,2.0,74,0.00,,,-99.99,Weather View 32 v70,2013-02-26 04:09:00,
2013-02-25 23:14:00,27.1,19.9,30.21,SW,228,0.0,2.0,74,0.00,,,-99.99,Weather View 32 v70,2013-02-26 04:14:00,
2013-02-25 23:25:00,26.9,19.4,30.20,SW,228,0.0,2.0,73,0.00,,,-99.99,Weather View 32 v70,2013-02-26 04:25:00,
2013-02-25 23:34:00,26.9,19.4,30.20,SW,228,0.0,2.0,73,0.00,,,-99.99,Weather View 32 v70,2013-02-26 04:34:00,
2013-02-25 23:39:00,26.6,19.1,30.20,SW,228,0.0,2.0,73,0.00,,,-99.99,Weather View 32 v70,2013-02-26 04:39:00,
2013-02-25 23:49:00,26.4,19.2,30.19,SW,228,2.0,2.0,74,0.00,,,-99.99,Weather View 32 v70,2013-02-26 04:49:00,
2013-02-25 23:54:00,26.6,19.7,30.20,SW,228,1.0,2.0,75,0.00,,,-99.99,Weather View 32 v70,2013-02-26 04:54:00,